Regional Weather Roundup
Issued by NWS

Home | Current Version | Previous Version | Text Only | Print | Product List | Glossary On
Versions: 1 2 3 4 5 6 7 8 9 10 11 12 13 14 15 16 17 18 19 20 21 22 23 24 25 26 27 28 29 30 31 32 33 34 35 36 37 38 39 40 41 42 43 44 45 46 47 48 49 50
000
ASUS45 KSLC 032210
RWRUT

UTAH REGIONAL WEATHER ROUNDUP
NATIONAL WEATHER SERVICE SALT LAKE CITY UT
400 PM MDT WED JUN 03 2020

UTZ001>011-023>025-032300-

NORTHERN UTAH

CITY           SKY/WX    TMP DP  RH WIND       PRES   REMARKS
BRIGHAM CITY     N/A     89  25  10 SW12G20   30.02F
DUGWAY         PTSUNNY   92  31  11 NW6       30.04F
HILL AFB         N/A     86  34  16 W13       30.07F
LOGAN            N/A     86  44  23 VRB6      30.02F
OGDEN            N/A     89  29  11 SW9G16    30.04F
SALT LAKE CITY   N/A     90  36  14 VRB7      30.01F
TOOELE VALLEY    N/A     88  41  19 E3        30.02F
WENDOVER         N/A     88  36  15 S14G22    30.01F
HEBER CITY       N/A     88  32  13 SW7       30.11F
WEST JORDAN      N/A     88  42  20 N8G18     30.06F

$$

UTZ011>015-024>027-032300-

CENTRAL/NORTHEAST UTAH

CITY           SKY/WX    TMP DP  RH WIND       PRES   REMARKS
PROVO AIRPORT  PTSUNNY   87  35  15 W8        30.05F
MOAB/CANYONLAN   N/A     92  29  10 W14G22    29.99F
DELTA            N/A     90  28  11 SW3G12    30.04F
PRICE            N/A     87  31  13 W12G23    30.10F
ROOSEVELT        N/A     88  30  12 W16       30.08S
DUCHESNE       CLEAR     84  23  10 W20G29    30.12S
VERNAL           N/A     86  35  16 SE14G24   30.07F

$$

UTZ013>016-019>022-027-032300-

SOUTHERN UTAH

CITY           SKY/WX    TMP DP  RH WIND       PRES   REMARKS
BRYCE CANYON   LGT RAIN  71  35  26 W7        30.34R
CEDAR CITY       N/A    N/A N/A N/A MISG      30.15F
MILFORD          N/A     91  30  11 SW12G22   30.06F
PANGUITCH      PTSUNNY   75  37  25 E17       30.27F
ST GEORGE        N/A     99  35  10 NW8       29.94F HX  93
HANKSVILLE       N/A     90  30  12 SW7       30.04F
BLANDING         N/A     87  30  13 SW8       30.19F

$$

REGIONAL REPORTS     COLORADO/ARIZONA

CITY           SKY/WX    TMP DP  RH WIND       PRES   REMARKS
CRAIG, CO        N/A     82  32  16 W8        30.13F
GRAND JUNCTION   N/A     92  27   9 NW12      30.01F
RIFLE, CO        N/A     88  33  14 NW14      30.08F
MONTROSE, CO     N/A     88  33  14 N16G23    30.11F
CORTEZ, CO       N/A     92  28  10 W21G28    30.11F
COLORADO CITY    N/A     95  32  11 CALM      30.12F HX  90
PAGE, AZ         N/A     97  27   8 NW10G20   30.01F HX  91
GRAND CANYON     N/A     86  32  14 W9        30.22F
KINGMAN, AZ      N/A    101  29   8 NW10G18   29.97F HX  94
FLAGSTAFF, AZ    N/A     80  31  16 S8G23     30.24F

$$

REGIONAL REPORTS    NEVADA/IDAHO/WYOMING

CITY           SKY/WX    TMP DP  RH WIND       PRES   REMARKS
LAS VEGAS, NV    N/A    103  35   9 NW7       29.88F HX  97
ELY, NY          N/A     86  27  11 W13G23    30.16F
ELKO, NV         N/A     88  31  13 W15G21    30.07F
POCATELLO, ID    N/A     82  44  26 W18       30.03F
BURLEY, ID       N/A     83  44  25 W9G23     29.99F
EVANSTON, WY     N/A     76  33  21 W22G32    30.22F
ROCK SPRINGS,    N/A     80  25  13 W26G39    30.14F
KEMMERER, WY     N/A     73  28  19 W13G29    30.21F

$$



USA.gov is the U.S. government's official web portal to all federal, state and local government web resources and services.